Year,Month,Day,Hour,Minute,Value (Times are PST for temperature in C)
2008,10,26,00,00,7.30
2008,10,26,00,01,7.30
2008,10,26,00,02,7.30
2008,10,26,00,03,7.30
2008,10,26,00,04,7.30
2008,10,26,00,05,7.30
2008,10,26,00,06,7.30
2008,10,26,00,07,7.30
2008,10,26,00,08,7.30
2008,10,26,00,09,7.40
2008,10,26,00,10,7.40
2008,10,26,00,11,7.40
2008,10,26,00,12,7.30
2008,10,26,00,13,7.30
2008,10,26,00,14,7.30
2008,10,26,00,15,7.30
2008,10,26,00,16,7.30
2008,10,26,00,17,7.30
2008,10,26,00,18,7.40
2008,10,26,00,19,7.40
2008,10,26,00,20,7.40
2008,10,26,00,21,7.40
2008,10,26,00,22,7.40
2008,10,26,00,23,7.40
2008,10,26,00,24,7.40
2008,10,26,00,25,7.40
2008,10,26,00,26,7.40
2008,10,26,00,27,7.40
2008,10,26,00,28,7.50
2008,10,26,00,29,7.50
2008,10,26,00,30,7.50
2008,10,26,00,31,7.50
2008,10,26,00,32,7.60
2008,10,26,00,33,7.50
2008,10,26,00,34,7.50
2008,10,26,00,35,7.50
2008,10,26,00,36,7.50
2008,10,26,00,37,7.50
2008,10,26,00,38,7.50
2008,10,26,00,39,7.50
2008,10,26,00,40,7.50
2008,10,26,00,41,7.50
2008,10,26,00,42,7.60
2008,10,26,00,43,7.60
2008,10,26,00,44,7.60
2008,10,26,00,45,7.60
2008,10,26,00,46,7.60
2008,10,26,00,47,7.60
2008,10,26,00,48,7.60
2008,10,26,00,49,7.60
2008,10,26,00,50,7.60
2008,10,26,00,51,7.60
2008,10,26,00,52,7.60
2008,10,26,00,53,7.60
2008,10,26,00,54,7.60
2008,10,26,00,55,7.60
2008,10,26,00,56,7.60
2008,10,26,00,57,7.60
2008,10,26,00,58,7.60
2008,10,26,00,59,7.60
2008,10,26,02,00,7.60
2008,10,26,02,01,7.60
2008,10,26,02,02,7.60
2008,10,26,02,03,7.60
2008,10,26,02,04,7.60
2008,10,26,02,05,7.60
2008,10,26,02,06,7.60
2008,10,26,02,07,7.60
2008,10,26,02,08,7.60
2008,10,26,02,09,7.70
2008,10,26,02,10,7.70
2008,10,26,02,11,7.70
2008,10,26,02,12,7.70
2008,10,26,02,13,7.70
2008,10,26,02,14,7.70
2008,10,26,02,15,7.70
2008,10,26,02,16,7.70
2008,10,26,02,17,7.70
2008,10,26,02,18,7.70
2008,10,26,02,19,7.70
2008,10,26,02,20,7.70
2008,10,26,02,21,7.70
2008,10,26,02,22,7.70
2008,10,26,02,23,7.70
2008,10,26,02,24,7.80
2008,10,26,02,25,7.80
2008,10,26,02,26,7.80
2008,10,26,02,27,7.80
2008,10,26,02,28,7.80
2008,10,26,02,29,7.80
2008,10,26,02,30,7.90
2008,10,26,02,31,7.90
2008,10,26,02,32,7.90
2008,10,26,02,33,7.90
2008,10,26,02,34,7.90
2008,10,26,02,35,7.90
2008,10,26,02,36,7.90
2008,10,26,02,37,7.90
2008,10,26,02,38,7.90
2008,10,26,02,39,8.00
2008,10,26,02,40,8.00
2008,10,26,02,41,8.00
2008,10,26,02,42,8.00
2008,10,26,02,43,8.00
2008,10,26,02,44,8.00
2008,10,26,02,45,8.00
2008,10,26,02,46,8.00
2008,10,26,02,47,8.00
2008,10,26,02,48,8.00
2008,10,26,02,49,8.00
2008,10,26,02,50,8.00
2008,10,26,02,51,8.00
2008,10,26,02,52,8.00
2008,10,26,02,53,8.00
2008,10,26,02,54,8.00
2008,10,26,02,55,8.00
2008,10,26,02,56,8.00
2008,10,26,02,57,8.00
2008,10,26,02,58,8.00
2008,10,26,02,59,8.00
2008,10,26,03,02,7.50
2008,10,26,03,03,7.50
2008,10,26,03,04,7.50
2008,10,26,03,05,7.50
2008,10,26,03,06,7.50
2008,10,26,03,07,7.50
2008,10,26,03,08,7.50
2008,10,26,03,09,7.40
2008,10,26,03,10,7.40
2008,10,26,03,11,7.40
2008,10,26,03,12,7.40
2008,10,26,03,13,7.40
2008,10,26,03,14,7.40
2008,10,26,03,15,7.40
2008,10,26,03,16,7.40
2008,10,26,03,17,7.30
2008,10,26,03,18,7.30
2008,10,26,03,19,7.30
2008,10,26,03,20,7.30
2008,10,26,03,21,7.30
2008,10,26,03,22,7.20
2008,10,26,03,23,7.20
2008,10,26,03,24,7.20
2008,10,26,03,25,7.20
2008,10,26,03,26,7.20
2008,10,26,03,27,7.20
2008,10,26,03,28,7.20
2008,10,26,03,29,7.20
2008,10,26,03,30,7.10
2008,10,26,03,31,7.10
2008,10,26,03,32,7.10
2008,10,26,03,33,7.10
2008,10,26,03,34,7.10
2008,10,26,03,35,7.10
2008,10,26,03,36,7.10
2008,10,26,03,37,7.00
2008,10,26,03,38,7.00
2008,10,26,03,39,7.00
2008,10,26,03,40,7.00
2008,10,26,03,41,7.00
2008,10,26,03,42,7.00
2008,10,26,03,43,7.00
2008,10,26,03,44,7.00
2008,10,26,03,45,7.00
2008,10,26,03,46,7.00
2008,10,26,03,47,7.00
2008,10,26,03,48,7.00
2008,10,26,03,49,7.00
2008,10,26,03,50,7.00
2008,10,26,03,51,6.90
2008,10,26,03,52,6.90
2008,10,26,03,53,6.90
2008,10,26,03,54,6.90
2008,10,26,03,55,6.90
2008,10,26,03,56,6.90
2008,10,26,03,57,6.90
2008,10,26,03,58,6.90
2008,10,26,03,59,6.80
2008,10,26,04,00,6.80
2008,10,26,04,01,6.80
2008,10,26,05,02,6.60
2008,10,26,05,03,6.60
2008,10,26,05,04,6.60
2008,10,26,05,05,6.60
2008,10,26,05,06,6.60
2008,10,26,05,07,6.60
2008,10,26,05,08,6.60
2008,10,26,05,09,6.60
2008,10,26,05,10,6.60
2008,10,26,05,11,6.60
2008,10,26,05,12,6.60
2008,10,26,05,13,6.60
2008,10,26,05,14,6.60
2008,10,26,05,15,6.60
2008,10,26,05,16,6.60
2008,10,26,05,17,6.60
2008,10,26,05,18,6.60
2008,10,26,05,19,6.50
2008,10,26,05,20,6.50
2008,10,26,05,21,6.50
2008,10,26,05,22,6.40
2008,10,26,05,23,6.40
2008,10,26,05,24,6.50
2008,10,26,05,25,6.50
2008,10,26,05,26,6.40
2008,10,26,05,27,6.50
2008,10,26,05,28,6.40
2008,10,26,05,29,6.40
2008,10,26,05,30,6.50
2008,10,26,05,31,6.50
2008,10,26,05,32,6.50
2008,10,26,05,33,6.50
2008,10,26,05,34,6.50
2008,10,26,05,35,6.60
2008,10,26,05,36,6.60
2008,10,26,05,37,6.60
2008,10,26,05,38,6.60
2008,10,26,05,39,6.60
2008,10,26,05,40,6.60
2008,10,26,05,41,6.60
2008,10,26,05,42,6.60
2008,10,26,05,43,6.60
2008,10,26,05,44,6.60
2008,10,26,05,45,6.60
2008,10,26,05,46,6.60
2008,10,26,05,47,6.60
2008,10,26,05,48,6.60
2008,10,26,05,49,6.60
2008,10,26,05,50,6.60
2008,10,26,05,51,6.60
2008,10,26,05,52,6.60
2008,10,26,05,53,6.60
2008,10,26,05,54,6.60
2008,10,26,05,55,6.60
2008,10,26,05,56,6.60
2008,10,26,05,57,6.60
2008,10,26,05,58,6.50
2008,10,26,05,59,6.50
2008,10,26,06,00,6.50
2008,10,26,06,01,6.50
2008,10,26,06,02,6.50
2008,10,26,06,03,6.50
2008,10,26,06,04,6.50
2008,10,26,06,05,6.50
2008,10,26,06,06,6.60
2008,10,26,06,07,6.60
2008,10,26,06,08,6.60
2008,10,26,06,09,6.60
2008,10,26,06,10,6.60
2008,10,26,06,11,6.60
2008,10,26,06,12,6.60
2008,10,26,06,13,6.60
2008,10,26,06,14,6.60
2008,10,26,06,15,6.60
2008,10,26,06,16,6.60
2008,10,26,06,17,6.60
2008,10,26,06,18,6.60
2008,10,26,06,19,6.60
2008,10,26,06,20,6.50
2008,10,26,06,21,6.50
2008,10,26,06,22,6.50
2008,10,26,06,23,6.50
2008,10,26,06,24,6.50
2008,10,26,06,25,6.50
2008,10,26,06,26,6.50
2008,10,26,06,27,6.50
2008,10,26,06,28,6.50
2008,10,26,06,29,6.50
2008,10,26,06,30,6.40
2008,10,26,06,31,6.40
2008,10,26,06,32,6.40
2008,10,26,06,33,6.40
2008,10,26,06,34,6.40
2008,10,26,06,35,6.50
2008,10,26,06,36,6.50
2008,10,26,06,37,6.50
2008,10,26,06,38,6.50
2008,10,26,06,39,6.50
2008,10,26,06,40,6.50
2008,10,26,06,41,6.40
2008,10,26,06,42,6.40
2008,10,26,06,43,6.50
2008,10,26,06,44,6.50
2008,10,26,06,45,6.50
2008,10,26,06,46,6.50
2008,10,26,06,47,6.50
2008,10,26,06,48,6.50
2008,10,26,06,49,6.50
2008,10,26,06,50,6.50
2008,10,26,06,51,6.50
2008,10,26,06,52,6.60
2008,10,26,06,53,6.60
2008,10,26,06,54,6.60
2008,10,26,06,55,6.60
2008,10,26,06,56,6.60
2008,10,26,06,57,6.60
2008,10,26,06,58,6.60
2008,10,26,06,59,6.60
2008,10,26,07,00,6.60
2008,10,26,07,01,6.60
2008,10,26,07,02,6.60
2008,10,26,07,03,6.70
2008,10,26,07,04,6.70
2008,10,26,07,05,6.70
2008,10,26,07,06,6.70
2008,10,26,07,07,6.70
2008,10,26,07,08,6.70
2008,10,26,07,09,6.70
2008,10,26,07,10,6.70
2008,10,26,07,11,6.70
2008,10,26,07,12,6.70
2008,10,26,07,13,6.80
2008,10,26,07,14,6.80
2008,10,26,07,15,6.80
2008,10,26,07,16,6.80
2008,10,26,07,17,6.80
2008,10,26,07,18,6.80
2008,10,26,07,19,6.80
2008,10,26,07,20,6.90
2008,10,26,07,21,6.90
2008,10,26,07,22,6.90
2008,10,26,07,23,6.90
2008,10,26,07,24,6.90
2008,10,26,07,25,6.90
2008,10,26,07,26,6.90
2008,10,26,07,27,6.90
2008,10,26,07,28,6.90
2008,10,26,07,29,6.90
2008,10,26,07,30,6.90
2008,10,26,07,31,6.90
2008,10,26,07,32,6.80
2008,10,26,07,33,6.80
2008,10,26,07,34,6.80
2008,10,26,07,35,6.90
2008,10,26,07,36,6.90
2008,10,26,07,37,6.90
2008,10,26,07,38,6.80
2008,10,26,07,39,6.80
2008,10,26,07,40,6.80
2008,10,26,07,41,6.80
2008,10,26,07,42,6.80
2008,10,26,07,43,6.80
2008,10,26,07,44,6.80
2008,10,26,07,45,6.80
2008,10,26,07,46,6.80
2008,10,26,07,47,6.90
2008,10,26,07,48,6.90
2008,10,26,07,49,6.90
2008,10,26,07,50,6.90
2008,10,26,07,51,6.90
2008,10,26,07,52,6.90
2008,10,26,07,53,6.80
2008,10,26,07,54,6.80
2008,10,26,07,55,6.80
2008,10,26,07,56,6.80
2008,10,26,07,57,6.80
2008,10,26,07,58,6.80
2008,10,26,07,59,6.80
2008,10,26,08,00,6.80
2008,10,26,08,01,6.80
2008,10,26,08,02,6.80
2008,10,26,08,03,6.80
2008,10,26,08,04,6.80
2008,10,26,08,05,6.80
2008,10,26,08,06,6.80
2008,10,26,08,07,6.80
2008,10,26,08,08,6.80
2008,10,26,08,09,6.80
2008,10,26,08,10,6.80
2008,10,26,08,11,6.80
2008,10,26,08,12,6.80
2008,10,26,08,13,6.80
2008,10,26,08,14,6.80
2008,10,26,08,15,6.80
2008,10,26,08,16,6.80
2008,10,26,08,17,6.80
2008,10,26,08,18,6.80
2008,10,26,08,19,6.80
2008,10,26,08,20,6.80
2008,10,26,08,21,6.80
2008,10,26,08,22,6.80
2008,10,26,08,23,6.80
2008,10,26,08,24,6.90
2008,10,26,08,25,6.90
2008,10,26,08,26,6.90
2008,10,26,08,27,6.90
2008,10,26,08,28,6.90
2008,10,26,08,29,7.00
2008,10,26,08,30,7.00
2008,10,26,08,31,7.00
2008,10,26,08,32,7.00
2008,10,26,08,33,7.00
2008,10,26,08,34,7.00
2008,10,26,08,35,7.00
2008,10,26,08,36,7.10
2008,10,26,08,37,7.10
2008,10,26,08,38,7.10
2008,10,26,08,39,7.10
2008,10,26,08,40,7.10
2008,10,26,08,41,7.20
2008,10,26,08,42,7.20
2008,10,26,08,43,7.20
2008,10,26,08,44,7.20
2008,10,26,08,45,7.20
2008,10,26,08,46,7.20
2008,10,26,08,47,7.20
2008,10,26,08,48,7.20
2008,10,26,08,49,7.20
2008,10,26,08,50,7.20
2008,10,26,08,51,7.20
2008,10,26,08,52,7.20
2008,10,26,08,53,7.20
2008,10,26,08,54,7.20
2008,10,26,08,55,7.20
2008,10,26,08,56,7.20
2008,10,26,08,57,7.20
2008,10,26,08,58,7.20
2008,10,26,08,59,7.20
2008,10,26,09,00,7.20
2008,10,26,09,01,7.20
2008,10,26,09,02,7.20
2008,10,26,09,03,7.20
2008,10,26,09,04,7.20
2008,10,26,09,05,7.30
2008,10,26,09,06,7.30
2008,10,26,09,07,7.30
2008,10,26,09,08,7.30
2008,10,26,09,09,7.30
2008,10,26,09,10,7.30
2008,10,26,09,11,7.30
2008,10,26,09,12,7.30
2008,10,26,09,13,7.30
2008,10,26,09,14,7.30
2008,10,26,09,15,7.30
2008,10,26,09,16,7.30
2008,10,26,09,17,7.30
2008,10,26,09,18,7.30
2008,10,26,09,19,7.30
2008,10,26,09,20,7.40
2008,10,26,09,21,7.40
2008,10,26,09,22,7.40
2008,10,26,09,23,7.40
2008,10,26,09,24,7.50
2008,10,26,09,25,7.50
2008,10,26,09,26,7.60
2008,10,26,09,27,7.60
2008,10,26,09,28,7.60
2008,10,26,09,29,7.70
2008,10,26,09,30,7.70
2008,10,26,09,31,7.80
2008,10,26,09,32,7.80
2008,10,26,09,33,7.80
2008,10,26,09,34,7.80
2008,10,26,09,35,7.90
2008,10,26,09,36,7.90
2008,10,26,09,37,7.90
2008,10,26,09,38,7.90
2008,10,26,09,39,7.90
2008,10,26,09,40,7.90
2008,10,26,09,41,7.90
2008,10,26,09,42,7.90
2008,10,26,09,43,8.00
2008,10,26,09,44,8.00
2008,10,26,09,45,8.00
2008,10,26,09,46,8.00
2008,10,26,09,47,8.10
2008,10,26,09,48,8.10
2008,10,26,09,49,8.10
2008,10,26,09,50,8.10
2008,10,26,09,51,8.20
2008,10,26,09,52,8.20
2008,10,26,09,53,8.20
2008,10,26,09,54,8.20
2008,10,26,09,55,8.20
2008,10,26,09,56,8.30
2008,10,26,09,57,8.30
2008,10,26,09,58,8.30
2008,10,26,09,59,8.30
2008,10,26,10,00,8.30
2008,10,26,10,01,8.20
2008,10,26,10,02,8.20
2008,10,26,10,03,8.20
2008,10,26,10,04,8.20
2008,10,26,10,05,8.20
2008,10,26,10,06,8.20
2008,10,26,10,07,8.20
2008,10,26,10,08,8.20
2008,10,26,10,09,8.20
2008,10,26,10,10,8.20
2008,10,26,10,11,8.20
2008,10,26,10,12,8.20
2008,10,26,10,13,8.20
2008,10,26,10,14,8.20
2008,10,26,10,15,8.30
2008,10,26,10,16,8.30
2008,10,26,10,17,8.30
2008,10,26,10,18,8.30
2008,10,26,10,19,8.30
2008,10,26,10,20,8.30
2008,10,26,10,21,8.40
2008,10,26,10,22,8.40
2008,10,26,10,23,8.40
2008,10,26,10,24,8.50
2008,10,26,10,25,8.60
2008,10,26,10,26,8.60
2008,10,26,10,27,8.70
2008,10,26,10,28,8.70
2008,10,26,10,29,8.80
2008,10,26,10,30,8.80
2008,10,26,10,31,8.80
2008,10,26,10,32,8.80
2008,10,26,10,33,8.80
2008,10,26,10,34,8.80
2008,10,26,10,35,8.90
2008,10,26,10,36,8.90
2008,10,26,10,37,8.90
2008,10,26,10,38,9.00
2008,10,26,10,39,9.00
2008,10,26,10,40,9.00
2008,10,26,10,41,9.00
2008,10,26,10,42,9.00
2008,10,26,10,43,8.90
2008,10,26,10,44,8.90
2008,10,26,10,45,8.90
2008,10,26,10,46,8.80
2008,10,26,10,47,8.70
2008,10,26,10,48,8.70
2008,10,26,10,49,8.70
2008,10,26,10,50,8.70
2008,10,26,10,51,8.70
2008,10,26,10,52,8.80
2008,10,26,10,53,8.80
2008,10,26,10,54,8.90
2008,10,26,10,55,8.90
2008,10,26,10,56,8.90
2008,10,26,10,57,8.90
2008,10,26,10,58,9.00
2008,10,26,10,59,9.00
2008,10,26,11,00,9.00
2008,10,26,11,01,8.90
2008,10,26,11,02,8.90
2008,10,26,11,03,9.00
2008,10,26,11,04,9.00
2008,10,26,11,05,9.10
2008,10,26,11,06,9.10
2008,10,26,11,07,9.10
2008,10,26,11,08,9.10
2008,10,26,11,09,9.10
2008,10,26,11,10,9.10
2008,10,26,11,11,9.00
2008,10,26,11,12,9.00
2008,10,26,11,13,9.00
2008,10,26,11,14,9.00
2008,10,26,11,15,9.00
2008,10,26,11,16,9.00
2008,10,26,11,17,9.00
2008,10,26,11,18,8.90
2008,10,26,11,19,8.90
2008,10,26,11,20,8.90
2008,10,26,11,21,8.80
2008,10,26,11,22,8.80
2008,10,26,11,23,8.80
2008,10,26,11,24,8.80
2008,10,26,11,25,8.80
2008,10,26,11,26,8.80
2008,10,26,11,27,8.80
2008,10,26,11,28,8.90
2008,10,26,11,29,8.90
2008,10,26,11,30,8.90
2008,10,26,11,31,8.90
2008,10,26,11,32,9.00
2008,10,26,11,33,9.00
2008,10,26,11,34,9.10
2008,10,26,11,35,9.10
2008,10,26,11,36,9.10
2008,10,26,11,37,9.10
2008,10,26,11,38,9.00
2008,10,26,11,39,9.00
2008,10,26,11,40,9.10
2008,10,26,11,41,9.10
2008,10,26,11,42,9.20
2008,10,26,11,43,9.20
2008,10,26,11,44,9.20
2008,10,26,11,45,9.30
2008,10,26,11,46,9.30
2008,10,26,11,47,9.30
2008,10,26,11,48,9.30
2008,10,26,11,49,9.30
2008,10,26,11,50,9.40
2008,10,26,11,51,9.40
2008,10,26,11,52,9.40
2008,10,26,11,53,9.40
2008,10,26,11,54,9.30
2008,10,26,11,55,9.30
2008,10,26,11,56,9.30
2008,10,26,11,57,9.30
2008,10,26,11,58,9.30
2008,10,26,11,59,9.30
2008,10,26,12,00,9.30
2008,10,26,12,01,9.30
2008,10,26,12,02,9.30
2008,10,26,12,03,9.30
2008,10,26,12,04,9.30
2008,10,26,12,05,9.30
2008,10,26,12,06,9.30
2008,10,26,12,07,9.30
2008,10,26,12,08,9.30
2008,10,26,12,09,9.30
2008,10,26,12,10,9.30
2008,10,26,12,11,9.40
2008,10,26,12,12,9.40
2008,10,26,12,13,9.40
2008,10,26,12,14,9.40
2008,10,26,12,15,9.40
2008,10,26,12,16,9.40
2008,10,26,12,17,9.40
2008,10,26,12,18,9.50
2008,10,26,12,19,9.50
2008,10,26,12,20,9.50
2008,10,26,12,21,9.50
2008,10,26,12,22,9.60
2008,10,26,12,23,9.60
2008,10,26,12,24,9.70
2008,10,26,12,25,9.70
2008,10,26,12,26,9.70
2008,10,26,12,27,9.70
2008,10,26,12,28,9.70
2008,10,26,12,29,9.80
2008,10,26,12,30,9.80
2008,10,26,12,31,9.80
2008,10,26,12,32,9.90
2008,10,26,12,33,9.90
2008,10,26,12,34,9.90
2008,10,26,12,35,9.90
2008,10,26,12,36,10.00
2008,10,26,12,37,10.00
2008,10,26,12,38,10.10
2008,10,26,12,39,10.10
2008,10,26,12,40,10.10
2008,10,26,12,41,10.10
2008,10,26,12,42,10.10
2008,10,26,12,43,10.10
2008,10,26,12,44,10.10
2008,10,26,12,45,10.10
2008,10,26,12,46,10.10
2008,10,26,12,47,10.00
2008,10,26,12,48,10.00
2008,10,26,12,49,9.90
2008,10,26,12,50,9.90
2008,10,26,12,51,9.90
2008,10,26,12,52,9.90
2008,10,26,12,53,9.90
2008,10,26,12,54,9.90
2008,10,26,12,55,9.90
2008,10,26,12,56,9.90
2008,10,26,12,57,9.90
2008,10,26,12,58,9.90
2008,10,26,12,59,10.00
2008,10,26,13,00,10.00
2008,10,26,13,01,10.10
2008,10,26,13,02,10.10
2008,10,26,13,03,10.20
2008,10,26,13,04,10.30
2008,10,26,13,05,10.30
2008,10,26,13,06,10.30
2008,10,26,13,07,10.30
2008,10,26,13,08,10.30
2008,10,26,13,09,10.30
2008,10,26,13,10,10.30
2008,10,26,13,11,10.20
2008,10,26,13,12,10.20
2008,10,26,13,13,10.20
2008,10,26,13,14,10.30
2008,10,26,13,15,10.40
2008,10,26,13,16,10.40
2008,10,26,13,17,10.40
2008,10,26,13,18,10.40
2008,10,26,13,19,10.40
2008,10,26,13,20,10.40
2008,10,26,13,21,10.30
2008,10,26,13,22,10.30
2008,10,26,13,23,10.20
2008,10,26,13,24,10.20
2008,10,26,13,25,10.20
2008,10,26,13,26,10.10
2008,10,26,13,27,10.10
2008,10,26,13,28,10.10
2008,10,26,13,29,10.00
2008,10,26,13,30,10.00
2008,10,26,13,31,10.00
2008,10,26,13,32,10.00
2008,10,26,13,33,10.00
2008,10,26,13,34,10.10
2008,10,26,13,35,10.20
2008,10,26,13,36,10.20
2008,10,26,13,37,10.20
2008,10,26,13,38,10.30
2008,10,26,13,39,10.30
2008,10,26,13,40,10.30
2008,10,26,13,41,10.30
2008,10,26,13,42,10.40
2008,10,26,13,43,10.40
2008,10,26,13,44,10.50
2008,10,26,13,45,10.50
2008,10,26,13,46,10.60
2008,10,26,13,47,10.60
2008,10,26,13,48,10.60
2008,10,26,13,49,10.60
2008,10,26,13,50,10.60
2008,10,26,13,51,10.60
2008,10,26,13,52,10.60
2008,10,26,13,53,10.60
2008,10,26,13,54,10.70
2008,10,26,13,55,10.70
2008,10,26,13,56,10.70
2008,10,26,13,57,10.70
2008,10,26,13,58,10.70
2008,10,26,13,59,10.70
2008,10,26,14,00,10.80
2008,10,26,14,01,10.80
2008,10,26,14,02,10.80
2008,10,26,14,03,10.80
2008,10,26,14,04,10.70
2008,10,26,14,05,10.70
2008,10,26,14,06,10.70
2008,10,26,14,07,10.70
2008,10,26,14,08,10.70
2008,10,26,14,09,10.80
2008,10,26,14,10,10.70
2008,10,26,14,11,10.70
2008,10,26,14,12,10.80
2008,10,26,14,13,10.80
2008,10,26,14,14,10.90
2008,10,26,14,15,10.90
2008,10,26,14,16,11.00
2008,10,26,14,17,11.00
2008,10,26,14,18,11.00
2008,10,26,14,19,11.00
2008,10,26,14,20,11.00
2008,10,26,14,21,11.00
2008,10,26,14,22,11.00
2008,10,26,14,23,11.10
2008,10,26,14,24,11.10
2008,10,26,14,25,11.20
2008,10,26,14,26,11.20
2008,10,26,14,27,11.30
2008,10,26,14,28,11.30
2008,10,26,14,29,11.30
2008,10,26,14,30,11.30
2008,10,26,14,31,11.30
2008,10,26,14,32,11.30
2008,10,26,14,33,11.30
2008,10,26,14,34,11.40
2008,10,26,14,35,11.40
2008,10,26,14,36,11.40
2008,10,26,14,37,11.40
2008,10,26,14,38,11.40
2008,10,26,14,39,11.40
2008,10,26,14,40,11.30
2008,10,26,14,41,11.30
2008,10,26,14,42,11.30
2008,10,26,14,43,11.20
2008,10,26,14,44,11.20
2008,10,26,14,45,11.10
2008,10,26,14,46,11.10
2008,10,26,14,47,11.20
2008,10,26,14,48,11.20
2008,10,26,14,49,11.10
2008,10,26,14,50,11.10
2008,10,26,14,51,11.20
2008,10,26,14,52,11.20
2008,10,26,14,53,11.30
2008,10,26,14,54,11.30
2008,10,26,14,55,11.30
2008,10,26,14,56,11.40
2008,10,26,14,57,11.40
2008,10,26,14,58,11.50
2008,10,26,14,59,11.60
2008,10,26,15,00,11.60
2008,10,26,15,01,11.60
2008,10,26,15,02,11.60
2008,10,26,15,03,11.60
2008,10,26,15,04,11.70
2008,10,26,15,05,11.80
2008,10,26,15,06,11.80
2008,10,26,15,07,11.80
2008,10,26,15,08,11.80
2008,10,26,15,09,11.80
2008,10,26,15,10,11.70
2008,10,26,15,11,11.60
2008,10,26,15,12,11.50
2008,10,26,15,13,11.40
2008,10,26,15,14,11.30
2008,10,26,15,15,11.20
2008,10,26,15,16,11.20
2008,10,26,15,17,11.20
2008,10,26,15,18,11.10
2008,10,26,15,19,11.10
2008,10,26,15,20,11.00
2008,10,26,15,21,11.00
2008,10,26,15,22,10.90
2008,10,26,15,23,11.00
2008,10,26,15,24,11.10
2008,10,26,15,25,11.10
2008,10,26,15,26,11.10
2008,10,26,15,27,11.10
2008,10,26,15,28,11.10
2008,10,26,15,29,11.10
2008,10,26,15,30,11.10
2008,10,26,15,31,11.10
2008,10,26,15,32,11.10
2008,10,26,15,33,11.00
2008,10,26,15,34,11.00
2008,10,26,15,35,11.00
2008,10,26,15,36,10.90
2008,10,26,15,37,11.00
2008,10,26,15,38,11.00
2008,10,26,15,39,11.00
2008,10,26,15,40,11.00
2008,10,26,15,41,11.10
2008,10,26,15,42,11.10
2008,10,26,15,43,11.00
2008,10,26,15,44,11.00
2008,10,26,15,45,11.00
2008,10,26,15,46,10.90
2008,10,26,15,47,10.80
2008,10,26,15,48,10.80
2008,10,26,15,49,10.80
2008,10,26,15,50,10.70
2008,10,26,15,51,10.70
2008,10,26,15,52,10.70
2008,10,26,15,53,10.60
2008,10,26,15,54,10.60
2008,10,26,15,55,10.60
2008,10,26,15,56,10.50
2008,10,26,15,57,10.50
2008,10,26,15,58,10.50
2008,10,26,15,59,10.50
2008,10,26,16,00,10.60
2008,10,26,16,01,10.60
2008,10,26,16,02,10.60
2008,10,26,16,03,10.60
2008,10,26,16,04,10.60
2008,10,26,16,05,10.70
2008,10,26,16,06,10.70
2008,10,26,16,07,10.70
2008,10,26,16,08,10.80
2008,10,26,16,09,10.80
2008,10,26,16,10,10.70
2008,10,26,16,11,10.70
2008,10,26,16,12,10.70
2008,10,26,16,13,10.60
2008,10,26,16,14,10.50
2008,10,26,16,15,10.40
2008,10,26,16,16,10.40
2008,10,26,16,17,10.30
2008,10,26,16,18,10.30
2008,10,26,16,19,10.30
2008,10,26,16,20,10.30
2008,10,26,16,21,10.30
2008,10,26,16,22,10.30
2008,10,26,16,23,10.30
2008,10,26,16,24,10.30
2008,10,26,16,25,10.30
2008,10,26,16,26,10.40
2008,10,26,16,27,10.30
2008,10,26,16,28,10.30
2008,10,26,16,29,10.30
2008,10,26,16,30,10.30
2008,10,26,16,31,10.30
2008,10,26,16,32,10.20
2008,10,26,16,33,10.10
2008,10,26,16,34,10.00
2008,10,26,16,35,9.90
2008,10,26,16,36,9.90
2008,10,26,16,37,9.80
2008,10,26,16,38,9.70
2008,10,26,16,39,9.70
2008,10,26,16,40,9.70
2008,10,26,16,41,9.70
2008,10,26,16,42,9.70
2008,10,26,16,43,9.70
2008,10,26,16,44,9.60
2008,10,26,16,45,9.60
2008,10,26,16,46,9.60
2008,10,26,16,47,9.60
2008,10,26,16,48,9.50
2008,10,26,16,49,9.50
2008,10,26,16,50,9.40
2008,10,26,16,51,9.40
2008,10,26,16,52,9.40
2008,10,26,16,53,9.40
2008,10,26,16,54,9.30
2008,10,26,16,55,9.30
2008,10,26,16,56,9.30
2008,10,26,16,57,9.30
2008,10,26,16,58,9.30
2008,10,26,16,59,9.20
2008,10,26,17,00,9.20
2008,10,26,17,01,9.20
2008,10,26,18,02,8.10
2008,10,26,18,03,8.00
2008,10,26,18,04,8.00
2008,10,26,18,05,8.00
2008,10,26,18,06,8.00
2008,10,26,18,07,7.90
2008,10,26,18,08,7.90
2008,10,26,18,09,7.90
2008,10,26,18,10,7.90
2008,10,26,18,11,7.90
2008,10,26,18,12,7.90
2008,10,26,18,13,7.90
2008,10,26,18,14,7.90
2008,10,26,18,15,7.90
2008,10,26,18,16,7.90
2008,10,26,18,17,7.90
2008,10,26,18,18,7.90
2008,10,26,18,19,7.90
2008,10,26,18,20,7.90
2008,10,26,18,21,7.80
2008,10,26,18,22,7.80
2008,10,26,18,23,7.80
2008,10,26,18,24,7.80
2008,10,26,18,25,7.80
2008,10,26,18,26,7.80
2008,10,26,18,27,7.80
2008,10,26,18,28,7.80
2008,10,26,18,29,7.70
2008,10,26,18,30,7.70
2008,10,26,18,31,7.70
2008,10,26,18,32,7.70
2008,10,26,18,33,7.70
2008,10,26,18,34,7.70
2008,10,26,18,35,7.70
2008,10,26,18,36,7.70
2008,10,26,18,37,7.70
2008,10,26,18,38,7.70
2008,10,26,18,39,7.70
2008,10,26,18,40,7.70
2008,10,26,18,41,7.70
2008,10,26,18,42,7.70
2008,10,26,18,43,7.70
2008,10,26,18,44,7.70
2008,10,26,18,45,7.60
2008,10,26,18,46,7.60
2008,10,26,18,47,7.60
2008,10,26,18,48,7.60
2008,10,26,18,49,7.60
2008,10,26,18,50,7.60
2008,10,26,18,51,7.60
2008,10,26,18,52,7.60
2008,10,26,18,53,7.60
2008,10,26,18,54,7.60
2008,10,26,18,55,7.50
2008,10,26,18,56,7.50
2008,10,26,18,57,7.50
2008,10,26,18,58,7.50
2008,10,26,18,59,7.50
2008,10,26,19,00,7.50
2008,10,26,19,01,7.50
2008,10,26,19,02,7.50
2008,10,26,19,03,7.50
2008,10,26,19,04,7.50
2008,10,26,19,05,7.40
2008,10,26,19,06,7.40
2008,10,26,19,07,7.40
2008,10,26,19,08,7.40
2008,10,26,19,09,7.40
2008,10,26,19,10,7.40
2008,10,26,19,11,7.40
2008,10,26,19,12,7.40
2008,10,26,19,13,7.40
2008,10,26,19,14,7.40
2008,10,26,19,15,7.40
2008,10,26,19,16,7.40
2008,10,26,19,17,7.40
2008,10,26,19,18,7.40
2008,10,26,19,19,7.50
2008,10,26,19,20,7.50
2008,10,26,19,21,7.50
2008,10,26,19,22,7.50
2008,10,26,19,23,7.50
2008,10,26,19,24,7.40
2008,10,26,19,25,7.40
2008,10,26,19,26,7.40
2008,10,26,19,27,7.40
2008,10,26,19,28,7.40
2008,10,26,19,29,7.40
2008,10,26,19,30,7.40
2008,10,26,19,31,7.40
2008,10,26,19,32,7.40
2008,10,26,19,33,7.40
2008,10,26,19,34,7.40
2008,10,26,19,35,7.30
2008,10,26,19,36,7.30
2008,10,26,19,37,7.30
2008,10,26,19,38,7.30
2008,10,26,19,39,7.30
2008,10,26,19,40,7.30
2008,10,26,19,41,7.30
2008,10,26,19,42,7.30
2008,10,26,19,43,7.30
2008,10,26,19,44,7.30
2008,10,26,19,45,7.30
2008,10,26,19,46,7.30
2008,10,26,19,47,7.30
2008,10,26,19,48,7.30
2008,10,26,19,49,7.30
2008,10,26,19,50,7.30
2008,10,26,19,51,7.30
2008,10,26,19,52,7.30
2008,10,26,19,53,7.30
2008,10,26,19,54,7.30
2008,10,26,19,55,7.40
2008,10,26,19,56,7.30
2008,10,26,19,57,7.30
2008,10,26,19,58,7.30
2008,10,26,19,59,7.40
2008,10,26,20,00,7.40
2008,10,26,20,01,7.40
2008,10,26,20,02,7.40
2008,10,26,20,03,7.40
2008,10,26,20,04,7.40
2008,10,26,20,05,7.40
2008,10,26,20,06,7.40
2008,10,26,20,07,7.40
2008,10,26,20,08,7.40
2008,10,26,20,09,7.40
2008,10,26,20,10,7.40
2008,10,26,20,11,7.40
2008,10,26,20,12,7.40
2008,10,26,20,13,7.40
2008,10,26,20,14,7.40
2008,10,26,20,15,7.40
2008,10,26,20,16,7.40
2008,10,26,20,17,7.40
2008,10,26,20,18,7.40
2008,10,26,20,19,7.40
2008,10,26,20,20,7.40
2008,10,26,20,21,7.40
2008,10,26,20,22,7.40
2008,10,26,20,23,7.40
2008,10,26,20,24,7.40
2008,10,26,20,25,7.40
2008,10,26,20,26,7.40
2008,10,26,20,27,7.40
2008,10,26,20,28,7.40
2008,10,26,20,29,7.40
2008,10,26,20,30,7.40
2008,10,26,20,31,7.40
2008,10,26,20,32,7.40
2008,10,26,20,33,7.40
2008,10,26,20,34,7.50
2008,10,26,20,35,7.50
2008,10,26,20,36,7.50
2008,10,26,20,37,7.50
2008,10,26,20,38,7.50
2008,10,26,20,39,7.50
2008,10,26,20,40,7.60
2008,10,26,20,41,7.60
2008,10,26,20,42,7.50
2008,10,26,20,43,7.60
2008,10,26,20,44,7.60
2008,10,26,20,45,7.60
2008,10,26,20,46,7.60
2008,10,26,20,47,7.60
2008,10,26,20,48,7.60
2008,10,26,20,49,7.60
2008,10,26,20,50,7.50
2008,10,26,20,51,7.50
2008,10,26,20,52,7.50
2008,10,26,20,53,7.50
2008,10,26,20,54,7.40
2008,10,26,20,55,7.40
2008,10,26,20,56,7.40
2008,10,26,20,57,7.40
2008,10,26,20,58,7.40